Wind_Speed
13 13 13 12 12 11 12 12 13 13 14 15 18 20 22 25 28 31 33 36 39 41 42 42 42 41 36 33 33 28 29 31 29 26 27 28 28 27 28 27 27 27 27 26
12 12 10 9 9 9 12 14 15 16 18 20 22 25 26 28 31 33 36 39 40 40 41 40 38 37 35 32 29 28 28 28 25 25 27 28 28 27 26 26 26 27 26 26
10 8 7 8 9 10 12 15 17 20 20 22 24 26 29 31 33 35 37 37 36 37 36 36 36 34 33 31 30 30 28 28 26 27 29 29 28 27 26 26 25 26 27 26
6 7 7 7 7 9 12 15 17 19 21 22 23 25 27 29 31 33 33 34 35 34 33 32 31 30 30 30 30 30 29 28 28 28 30 29 28 28 28 27 27 28 27 27
7 7 7 6 6 8 11 14 15 17 18 20 21 24 26 27 28 29 30 30 32 31 31 30 29 29 29 30 30 30 30 30 30 30 31 31 30 31 31 31 31 30 30 29
5 6 5 4 5 7 10 12 12 13 14 16 17 20 21 22 24 24 25 26 27 27 28 28 29 30 31 32 32 33 33 34 35 36 35 35 36 36 36 35 35 35 34 34
4 4 5 5 5 7 10 11 11 10 11 13 15 18 18 20 21 22 23 24 24 26 28 29 31 33 35 36 37 38 39 39 40 40 41 41 42 42 42 41 40 40 39 39
6 2 3 5 6 7 9 10 11 12 13 15 16 17 19 21 21 23 25 25 25 27 29 32 35 37 39 41 42 43 44 45 46 47 47 48 48 48 47 47 47 46 46 45
8 5 4 6 7 9 11 12 14 15 16 18 18 19 21 23 25 27 29 29 31 33 35 36 39 42 44 45 46 47 48 49 50 51 52 53 53 53 53 52 52 51 50 50
10 8 7 7 9 11 14 15 15 17 19 19 21 22 24 26 29 32 33 35 36 39 40 43 45 47 49 50 51 52 52 53 54 55 55 56 57 58 58 58 57 56 56 55
9 8 9 10 10 11 14 15 16 17 19 22 25 26 28 30 32 35 37 39 41 43 45 48 49 51 53 54 55 56 57 58 59 59 60 60 60 61 61 61 61 61 61 60
9 10 11 12 13 15 16 16 17 18 20 23 26 30 31 34 37 39 41 43 46 48 50 52 54 55 57 58 59 60 61 63 63 64 64 64 64 64 64 64 64 64 64 64
10 11 12 13 14 16 18 18 18 19 22 25 29 32 35 38 41 43 45 48 50 52 54 56 58 59 61 63 64 65 66 66 66 66 66 66 66 66 66 66 66 66 66 66
11 11 12 13 15 16 18 17 18 21 23 27 31 34 37 40 43 45 48 51 54 56 58 60 62 63 65 67 68 68 68 67 66 65 64 63 63 63 63 63 63 64 65 66
10 10 12 14 16 17 18 19 20 22 25 29 33 36 38 41 44 47 51 54 56 59 61 63 66 67 68 68 67 66 65 64 62 60 59 57 56 55 54 54 54 55 57 58
9 10 12 14 17 18 18 19 21 24 27 30 33 36 39 43 46 49 53 56 59 61 64 66 67 67 66 65 64 63 60 57 55 53 51 49 47 45 43 42 42 43 44 46
10 11 12 14 17 18 18 20 23 26 28 31 35 39 42 45 48 52 55 59 62 64 65 66 65 64 63 61 59 56 53 50 48 46 44 42 40 39 37 36 34 34 34 35
10 12 14 16 17 18 20 23 27 30 32 35 39 43 46 49 51 54 58 61 63 64 63 62 61 60 58 56 53 51 49 47 46 44 43 41 40 38 36 34 33 33 32 32
13 15 17 20 22 23 25 28 31 35 37 39 43 46 49 51 53 54 58 61 62 61 60 60 59 57 55 52 51 49 48 47 46 45 43 42 40 39 37 35 34 33 32 31
17 18 20 23 25 27 28 31 34 38 40 43 46 49 52 54 58 59 60 61 60 60 59 57 55 53 52 51 50 50 49 48 47 45 44 42 40 39 38 37 35 34 32 31
18 20 22 24 26 28 31 33 36 38 42 44 48 52 55 58 61 62 61 60 59 57 55 54 53 52 52 51 51 50 49 49 47 45 43 41 40 39 38 36 35 34 32 30
19 21 23 26 28 30 33 35 38 41 44 48 51 54 57 59 60 60 59 58 57 55 54 54 53 52 52 52 52 51 50 48 46 44 42 40 39 37 36 35 33 32 30 29
20 22 24 27 29 32 34 37 41 44 47 50 53 55 58 60 60 59 58 57 55 54 54 54 54 53 52 53 53 51 50 47 45 41 39 37 36 35 34 33 31 30 29 28
21 23 25 28 30 33 36 39 42 45 48 50 53 56 58 60 59 58 57 56 55 55 54 54 54 53 52 52 51 50 48 44 40 37 34 33 32 31 31 30 29 28 27 26
23 25 27 29 31 34 37 39 41 44 47 50 53 56 58 59 58 58 57 55 55 54 54 54 53 52 51 50 48 46 43 40 36 33 30 27 26 25 26 27 26 26 24 23
24 26 29 30 32 35 37 40 42 45 48 51 54 56 58 58 58 57 56 55 54 53 53 52 51 51 50 49 46 44 40 37 33 29 25 23 20 19 20 21 22 22 21 20
Wind_Direction
236 237 238 247 251 249 244 245 243 240 242 246 250 251 252 255 259 263 268 273 278 283 286 288 292 295 294 291 286 282 278 268 272 273 280 281 278 279 280 280 282 282 282 281
232 231 239 244 250 255 251 248 244 239 238 242 242 244 249 254 259 265 270 274 278 282 288 293 297 298 299 300 294 297 296 291 283 282 286 286 285 283 279 278 281 282 281 278
231 237 237 246 250 246 249 250 247 246 243 247 251 250 252 257 261 265 270 275 278 282 288 294 297 299 303 305 308 308 303 301 298 294 293 291 290 286 284 280 282 282 281 281
233 238 240 247 257 257 255 257 257 254 253 254 260 264 264 268 271 270 271 275 278 284 290 295 297 299 301 304 307 308 307 304 301 297 296 295 292 288 287 284 283 282 279 278
234 244 245 251 270 279 276 272 271 266 264 264 266 274 277 278 278 278 276 279 281 285 288 293 296 299 301 303 304 304 303 301 299 298 297 295 291 290 288 286 283 280 277 276
252 248 255 271 287 291 296 295 292 282 274 274 278 287 292 290 288 287 283 286 287 285 289 293 296 300 302 303 303 303 301 299 297 296 294 292 289 289 287 284 282 279 276 275
297 271 262 277 301 303 307 309 306 301 294 294 296 303 311 306 303 302 299 298 297 299 298 298 299 302 304 305 304 303 301 298 296 294 291 289 286 285 284 282 280 278 275 273
0 331 261 281 302 313 320 318 317 319 320 318 315 316 318 320 320 320 319 314 310 309 305 303 302 302 303 303 302 301 299 297 295 293 291 288 286 284 281 279 277 276 273 272
352 345 301 294 300 306 312 312 313 315 319 319 318 320 319 319 322 321 320 317 314 313 309 305 304 303 302 301 300 298 296 294 293 291 290 288 286 284 282 280 277 275 272 270
343 339 318 308 304 307 309 307 307 310 315 318 319 321 323 322 321 320 318 317 315 313 310 308 307 305 303 302 300 298 295 293 291 289 287 285 284 283 281 279 277 275 272 270
338 337 325 317 314 310 308 306 307 307 312 316 319 324 326 323 321 319 319 317 315 312 311 309 308 306 304 302 301 299 297 295 293 290 288 285 283 281 279 277 276 274 272 270
332 327 321 318 316 313 314 315 312 313 313 317 321 323 324 323 321 320 318 317 315 314 313 311 310 308 306 304 302 301 298 296 294 292 290 287 284 281 278 276 274 272 270 269
327 322 319 315 312 312 316 318 318 320 320 320 321 322 322 321 321 320 319 317 316 315 313 312 310 309 307 305 303 301 299 296 294 292 289 287 284 282 279 276 274 271 269 267
325 321 319 318 315 319 322 324 323 322 320 320 320 320 321 320 320 319 318 317 316 315 314 313 311 309 307 305 303 301 300 298 295 293 291 289 287 284 281 278 275 273 270 267
322 323 323 319 319 326 326 325 321 319 320 320 320 321 321 321 321 320 319 317 316 315 314 313 311 309 308 306 305 303 301 300 298 296 294 292 290 287 284 281 277 274 271 268
322 325 323 319 321 328 330 325 321 320 322 322 322 322 322 322 322 321 319 317 317 316 314 313 311 310 309 307 305 304 302 300 299 298 296 294 292 290 287 284 281 277 273 269
322 323 322 322 326 332 332 326 324 324 326 326 325 324 324 323 323 323 321 319 318 317 315 313 312 311 309 308 306 305 303 301 299 298 296 293 291 289 287 284 281 279 278 275
328 327 327 329 331 336 335 331 330 329 331 329 328 327 327 326 326 325 322 320 319 317 316 315 314 312 311 310 308 306 304 302 299 297 294 291 289 286 284 282 281 280 279 277
340 338 337 336 337 337 336 336 333 332 333 331 330 329 328 327 326 325 322 321 321 320 319 318 317 315 314 312 309 306 304 301 298 295 291 288 285 282 280 279 279 279 278 276
344 342 338 335 335 336 336 335 335 334 332 332 331 330 330 329 328 328 327 326 324 323 322 321 320 318 316 313 311 308 305 302 298 294 291 286 282 280 278 276 275 275 275 274
339 334 332 331 333 333 335 335 334 332 333 332 333 333 333 332 331 330 329 328 326 326 325 324 322 320 318 316 313 311 308 304 300 295 290 286 281 278 276 273 273 272 271 271
333 330 331 331 332 333 334 333 334 335 335 336 336 335 334 333 331 331 330 329 329 329 327 326 324 323 321 318 316 313 310 306 302 297 291 286 281 276 273 271 271 269 268 267
330 330 330 330 330 331 333 335 337 338 338 337 335 335 334 334 333 333 332 332 332 331 329 328 326 325 323 321 319 317 313 309 305 300 294 288 281 275 271 270 268 265 263 262
328 327 327 328 330 333 336 338 338 337 336 336 336 335 335 335 335 335 335 334 334 332 331 330 329 328 327 326 324 321 318 314 311 305 298 291 282 274 269 265 264 262 259 257
325 324 326 329 332 335 337 337 337 336 336 336 337 337 337 336 337 337 337 337 336 336 335 334 334 333 333 332 330 328 325 321 318 313 305 297 288 278 269 262 259 256 254 252
323 324 327 331 333 334 336 336 337 338 338 338 339 339 339 339 339 340 340 340 340 340 339 339 339 338 338 337 336 335 332 328 326 322 314 304 294 284 273 262 253 249 247 245
Height
5876 5878 5877 5878 5878 5878 5878 5878 5878 5878 5878 5877 5876 5875 5875 5875 5873 5872 5870 5869 5867 5866 5864 5860 5856 5851 5846 5841 5837 5833 5831 5830 5829 5829 5829 5830 5830 5830 5829 5829 5827 5827 5826 5825
5873 5874 5874 5874 5874 5874 5874 5873 5873 5874 5874 5873 5872 5872 5871 5870 5869 5868 5866 5864 5862 5860 5857 5854 5849 5845 5840 5835 5831 5829 5829 5824 5819 5822 5824 5824 5823 5822 5821 5822 5821 5820 5820 5819
5870 5871 5871 5871 5871 5871 5870 5870 5869 5869 5869 5869 5868 5868 5867 5865 5864 5862 5860 5858 5856 5854 5851 5848 5845 5842 5838 5834 5830 5826 5824 5821 5819 5820 5820 5818 5817 5816 5815 5815 5814 5813 5812 5812
5868 5868 5868 5868 5868 5868 5867 5867 5866 5865 5865 5865 5865 5863 5863 5860 5858 5856 5854 5852 5850 5848 5845 5843 5840 5837 5834 5830 5826 5822 5819 5818 5816 5815 5813 5811 5810 5809 5809 5808 5807 5806 5805 5805
5866 5866 5866 5866 5866 5865 5864 5863 5862 5862 5861 5861 5861 5859 5858 5855 5853 5849 5847 5845 5843 5841 5839 5837 5835 5831 5828 5824 5820 5816 5814 5812 5810 5808 5806 5804 5803 5802 5801 5799 5798 5798 5797 5797
5865 5865 5865 5864 5864 5863 5862 5861 5859 5858 5858 5858 5856 5855 5853 5849 5847 5845 5842 5839 5837 5835 5833 5831 5828 5824 5820 5817 5813 5810 5808 5805 5803 5800 5798 5796 5794 5793 5791 5790 5789 5788 5788 5788
5865 5864 5864 5863 5862 5861 5860 5859 5857 5855 5855 5854 5852 5850 5849 5845 5842 5839 5837 5834 5831 5829 5826 5824 5820 5816 5812 5808 5804 5801 5798 5796 5793 5791 5788 5786 5785 5783 5781 5779 5778 5777 5777 5776
5863 5863 5862 5861 5860 5859 5858 5856 5855 5853 5851 5850 5848 5846 5845 5841 5838 5835 5832 5828 5825 5822 5819 5815 5812 5808 5804 5800 5796 5792 5788 5785 5781 5778 5776 5773 5771 5769 5768 5767 5765 5764 5764 5763
5862 5862 5861 5860 5858 5857 5856 5854 5853 5851 5849 5847 5844 5843 5840 5837 5833 5830 5826 5822 5818 5814 5811 5807 5803 5798 5794 5790 5786 5781 5777 5773 5768 5764 5761 5757 5755 5752 5751 5750 5749 5749 5748 5748
5861 5861 5860 5859 5857 5856 5854 5851 5850 5848 5845 5843 5841 5838 5836 5832 5828 5824 5819 5815 5810 5806 5801 5796 5792 5787 5782 5776 5771 5767 5762 5758 5754 5749 5745 5741 5738 5735 5732 5731 5730 5730 5730 5730
5860 5860 5858 5857 5855 5854 5852 5849 5847 5845 5842 5839 5836 5836 5831 5827 5822 5817 5812 5807 5802 5797 5792 5786 5781 5775 5768 5762 5756 5750 5744 5739 5734 5730 5726 5723 5719 5716 5713 5711 5710 5709 5709 5710
5859 5858 5856 5855 5853 5851 5849 5847 5844 5842 5839 5836 5832 5832 5825 5820 5815 5809 5804 5798 5792 5786 5780 5774 5767 5760 5753 5746 5739 5733 5726 5720 5714 5709 5704 5700 5696 5693 5691 5689 5688 5687 5688 5688
5858 5857 5855 5853 5852 5849 5846 5844 5841 5838 5835 5831 5828 5826 5818 5812 5807 5801 5794 5788 5782 5775 5768 5761 5753 5745 5738 5730 5722 5715 5708 5701 5694 5688 5683 5678 5674 5670 5668 5666 5665 5664 5664 5665
5856 5854 5853 5851 5847 5845 5843 5840 5837 5835 5831 5827 5823 5818 5813 5806 5800 5793 5786 5778 5771 5763 5755 5747 5738 5730 5721 5712 5704 5695 5687 5679 5673 5666 5661 5655 5651 5646 5644 5642 5640 5640 5640 5641
5854 5852 5850 5847 5844 5842 5840 5837 5834 5831 5827 5823 5818 5812 5806 5800 5793 5785 5777 5768 5760 5751 5742 5733 5723 5713 5703 5693 5684 5675 5667 5659 5652 5645 5639 5634 5629 5625 5622 5619 5618 5617 5616 5617
5852 5850 5848 5845 5842 5840 5837 5834 5830 5827 5823 5818 5812 5807 5800 5793 5785 5777 5768 5758 5749 5739 5729 5718 5707 5696 5686 5676 5667 5658 5649 5642 5635 5628 5622 5617 5612 5608 5605 5602 5600 5598 5598 5597
5850 5848 5846 5844 5840 5838 5835 5831 5826 5822 5818 5813 5806 5801 5793 5785 5777 5768 5757 5746 5736 5725 5713 5702 5691 5680 5670 5660 5650 5642 5634 5627 5620 5614 5609 5604 5599 5596 5592 5590 5587 5585 5584 5583
5848 5846 5843 5840 5839 5835 5834 5826 5821 5816 5811 5805 5798 5791 5783 5775 5767 5757 5745 5733 5722 5711 5699 5688 5676 5666 5655 5645 5635 5627 5620 5613 5607 5601 5596 5591 5587 5584 5581 5578 5576 5575 5573 5572
5845 5843 5839 5836 5833 5830 5827 5821 5815 5809 5804 5798 5790 5783 5774 5765 5757 5749 5735 5722 5709 5696 5684 5672 5660 5649 5639 5630 5620 5612 5605 5598 5592 5586 5581 5577 5573 5570 5568 5566 5565 5563 5562 5561
5842 5839 5836 5832 5829 5825 5823 5816 5809 5804 5797 5790 5782 5773 5764 5754 5743 5734 5721 5707 5694 5682 5670 5658 5646 5635 5625 5616 5606 5597 5590 5582 5576 5570 5566 5562 5559 5556 5555 5553 5552 5551 5551 5550
5840 5837 5833 5829 5825 5821 5817 5811 5805 5799 5793 5783 5773 5763 5752 5741 5730 5718 5706 5694 5682 5669 5657 5645 5634 5623 5612 5602 5592 5582 5574 5566 5559 5554 5549 5546 5543 5541 5540 5540 5539 5539 5539 5539
5837 5834 5830 5825 5821 5818 5811 5805 5799 5792 5783 5773 5763 5754 5743 5733 5721 5708 5696 5683 5670 5658 5646 5634 5622 5611 5599 5588 5577 5567 5558 5550 5543 5537 5533 5529 5527 5526 5525 5526 5526 5526 5527 5528
5834 5831 5826 5822 5818 5812 5805 5798 5791 5782 5774 5765 5756 5746 5735 5724 5711 5699 5686 5672 5660 5647 5635 5622 5610 5598 5587 5574 5562 5552 5542 5534 5526 5521 5516 5513 5511 5511 5511 5512 5513 5514 5516 5518
5830 5826 5822 5817 5811 5805 5799 5792 5784 5777 5769 5760 5750 5739 5727 5715 5702 5689 5676 5663 5650 5637 5624 5612 5599 5587 5575 5562 5550 5538 5528 5519 5511 5506 5501 5498 5497 5497 5498 5499 5501 5503 5506 5508
5826 5821 5817 5812 5806 5801 5795 5788 5781 5773 5764 5754 5744 5732 5719 5706 5693 5680 5667 5654 5641 5628 5615 5602 5589 5576 5564 5552 5539 5527 5516 5507 5500 5494 5489 5486 5484 5484 5486 5488 5490 5493 5496 5498
5821 5816 5811 5807 5802 5796 5790 5783 5775 5767 5758 5747 5736 5725 5712 5698 5685 5672 5659 5646 5633 5620 5607 5594 5581 5568 5556 5543 5531 5519 5508 5499 5491 5485 5481 5478 5476 5475 5476 5478 5481 5484 5487 5491